TimeMDT,TemperatureF,Dew PointF,Humidity,Sea Level PressureIn,VisibilityMPH,Wind Direction,Wind SpeedMPH,Gust SpeedMPH,PrecipitationIn,Events,Conditions,WindDirDegrees,DateUTC
12:56 AM,55.0,50.0,83,29.89,10.0,NW,12.7,-,N/A,,Clear,320,2013-07-28 06:56:00
1:56 AM,55.0,50.0,83,29.89,10.0,NNW,11.5,-,N/A,,Clear,330,2013-07-28 07:56:00
2:56 AM,55.9,48.9,77,29.88,10.0,North,11.5,-,N/A,,Clear,350,2013-07-28 08:56:00
3:56 AM,54.0,48.0,80,29.90,10.0,North,13.8,-,N/A,,Clear,350,2013-07-28 09:56:00
4:56 AM,51.1,46.0,83,29.92,10.0,North,8.1,-,N/A,,Clear,10,2013-07-28 10:56:00
5:56 AM,46.9,45.0,93,29.95,10.0,NNW,5.8,-,N/A,,Clear,340,2013-07-28 11:56:00
6:56 AM,50.0,46.9,89,29.95,10.0,NW,10.4,-,N/A,,Partly Cloudy,310,2013-07-28 12:56:00
7:56 AM,55.0,46.9,74,29.96,10.0,NNW,10.4,-,N/A,,Mostly Cloudy,330,2013-07-28 13:56:00
8:56 AM,57.0,46.9,69,29.96,10.0,North,10.4,-,N/A,,Scattered Clouds,350,2013-07-28 14:56:00
11:56 AM,68.0,39.0,35,29.92,10.0,NE,6.9,-,N/A,,Clear,40,2013-07-28 17:56:00
12:56 PM,70.0,41.0,35,29.91,10.0,Variable,3.5,-,N/A,,Clear,0,2013-07-28 18:56:00
1:56 PM,71.1,41.0,34,29.90,10.0,NNE,5.8,-,N/A,,Clear,20,2013-07-28 19:56:00
2:56 PM,73.0,39.9,30,29.87,10.0,Calm,Calm,-,N/A,,Clear,0,2013-07-28 20:56:00
3:56 PM,73.9,39.9,29,29.85,10.0,Calm,Calm,-,N/A,,Clear,0,2013-07-28 21:56:00
4:56 PM,75.9,41.0,29,29.85,10.0,ENE,10.4,-,N/A,,Clear,60,2013-07-28 22:56:00
5:56 PM,73.0,45.0,37,29.87,10.0,NE,18.4,-,N/A,,Scattered Clouds,40,2013-07-28 23:56:00
6:56 PM,68.0,46.9,47,29.88,10.0,NNE,9.2,-,N/A,,Mostly Cloudy,20,2013-07-29 00:56:00
7:56 PM,66.0,48.9,54,29.88,10.0,NE,13.8,-,N/A,,Scattered Clouds,40,2013-07-29 01:56:00
8:56 PM,64.0,46.0,52,29.93,10.0,North,28.8,35.7,N/A,,Overcast,10,2013-07-29 02:56:00
9:56 PM,55.0,48.0,77,29.96,10.0,North,25.3,32.2,0.00,,Scattered Clouds,10,2013-07-29 03:56:00